Location: Casco Millpond
(44.5581°N, 87.6111°W)
Time: 07:31:29
(UTC+00:00)

ACS3 Solar Sail - Visible Passes

Search period start: 08 March 2026 00:00
Search period end: 18 March 2026 00:00
Orbit: 888 x 973 km, 97.2° (Epoch: 7 March)

Date Brightness Start Highest point End Pass type
(mag) Time Alt. Az. Time Alt. Az. Time Alt. Az.
8 Mar 4.4 07:07:44 10° NNE 07:08:08 12° NNE 07:08:08 12° NNE visible
8 Mar 3.8 08:50:46 10° N 08:51:50 15° NNW 08:51:50 15° NNW visible
9 Mar 4.2 07:19:09 10° NNE 07:19:54 14° NNE 07:19:54 14° NNE visible
9 Mar 3.8 09:02:34 10° NNW 09:03:36 14° NNW 09:03:36 14° NNW visible
10 Mar 4.1 07:30:34 10° NNE 07:31:38 16° NNE 07:31:38 16° NNE visible
10 Mar 3.8 09:14:24 10° NNW 09:15:19 13° NNW 09:15:19 13° NNW visible
11 Mar 3.9 07:41:59 10° NNE 07:43:18 18° NNE 07:43:18 18° NNE visible
11 Mar 3.9 09:26:20 10° NNW 09:26:59 12° NNW 09:26:59 12° NNW visible
12 Mar 3.8 07:53:23 10° N 07:54:56 19° N 07:54:56 19° N visible
12 Mar 3.9 09:38:28 10° NNW 09:38:37 10° NW 09:38:37 10° NW visible
13 Mar 3.7 08:04:47 10° N 08:06:31 20° N 08:06:31 20° N visible
14 Mar 4.4 06:34:05 10° NE 06:34:22 11° NE 06:34:22 11° NE visible
14 Mar 3.6 08:16:10 10° N 08:18:03 21° N 08:18:03 21° N visible
15 Mar 4.3 06:45:05 10° NNE 06:45:52 14° NNE 06:45:52 14° NNE visible
15 Mar 3.5 08:27:33 10° N 08:29:32 21° NNW 08:29:32 21° NNW visible
16 Mar 4.1 06:56:05 10° NNE 06:57:19 16° NNE 06:57:19 16° NNE visible
16 Mar 3.5 08:38:56 10° N 08:40:59 20° NNW 08:40:59 20° NNW visible
17 Mar 3.9 07:07:08 10° NNE 07:08:43 19° NNE 07:08:43 19° NNE visible
17 Mar 3.5 08:50:19 10° N 08:52:23 19° NNW 08:52:23 19° NNW visible
